www.pogodaiklimat.ru

Погода и климат >> Архив погоды >> Россия >> Хабаровский край >> Охотск


АРХИВ ПОГОДЫ в Охотске

Время (UTC), дата Ветер
(напр.,м/с)
 
Видим.   Явления Облачность Т
(С)
Тd
(С)
f
(%)
Тe
(С)
Тes
(С)
Комфортность P
(гПа)
Po
(гПа)
Тmin
(С)
Tmax
(С)
R
(мм)
R24
(мм)
S
(см)
03 13.08 ЮЗ 4 50 км 8/5 600 м
[Cb calv Ac trans Ci fib]
+15.4 +12.4 82 +14 +17 по сезону 1007.8 1007.1
06 13.08 З 5 50 км 6/4 600 м
[Cb calv Ci fib]
+15.6 +12.7 83 +14 +16 по сезону 1007.5 1006.8
09 13.08 З 4 50 км 8/5 600 м
[Cb calv Ac trans Ci fib]
+14.6 +12.3 86 +13 +13 по сезону 1007.7 1007.0 +16.4
12 13.08 С 1 50 км 8/4 600 м
[Sc Ac trans Ci fib]
+13.0 +12.1 94 +13 +13 по сезону 1008.2 1007.5
15 13.08 С 2 50 км 6/4 300 м
[St Ci fib]
+10.9 +10.5 97 +9 +9 прохладно 1008.4 1007.7
18 13.08 С 3 50 км 4/1 600 м
[Sc Ci fib]
+11.0 +10.1 94 +9 +9 по сезону 1009.2 1008.6
21 13.08 С 4 50 км 4/1 600 м
[Sc Ci fib]
+11.7 +10.4 92 +9 +10 прохладно 1010.2 1009.5 +10.4
00 14.08 С 3 50 км 3/3 600 м
[Cu med, cong Ci fib]
+19.5 +12.1 62 +21 +26 комфорт 1010.8 1010.2
03 14.08 ЮЗ 3 50 км 4/4 600 м
[Cb calv]
+18.1 +13.9 76 +18 +24 тепло 1011.0 1010.4
06 14.08 З 3 50 км 4/3 600 м
[Cb calv Ci fib]
+19.4 +13.0 66 +21 +24 комфорт 1011.3 1010.7
09 14.08 Ю 2 50 км 3/3 600 м
[Cu med, cong Ac trans Ci fib]
+16.6 +14.0 85 +17 +17 тепло 1012.2 1011.5 +22.5
12 14.08 ЮВ 2 50 км 3/0
[Ci fib]
+14.7 +12.0 84 +14 +14 по сезону 1013.5 1012.8
15 14.08 штиль 0 50 км 3/0
[Ci fib]
+13.1 +11.4 89 +13 +13 по сезону 1014.4 1013.7
18 14.08 С 2 50 км 3/0
[Ci fib]
+9.0 +8.3 95 +7 +7 прохладно 1015.6 1014.9
21 14.08 С 2 20 км 6/5 300 м
[St Ci fib]
+9.2 +9.0 99 +7 +8 холодно 1016.7 1016.1 +8.6
00 15.08 Ю 1 50 км 6/3 300 м
[St Ci fib]
+15.6 +10.7 73 +16 +22 тепло 1017.3 1016.6
03 15.08 Ю 3 50 км 4/1 300 м
[St Ci fib]
+16.6 +13.2 80 +16 +24 тепло 1017.6 1017.0
06 15.08 ЮВ 4 50 км 3/1 600 м
[Cu hum Ci fib]
+15.8 +14.0 89 +15 +18 по сезону 1017.3 1016.6
09 15.08 Ю 3 50 км 6/3 300 м
[St Ci fib]
+15.8 +13.6 87 +15 +15 по сезону 1017.8 1017.1 +16.9
12 15.08 ЮВ 6
{10}
50 км 10/8 300 м
[St Ci fib]
+13.3 +12.1 92 +11 +11 по сезону 1019.0 1018.4
15 15.08 СВ 2 50 км 9/9 300 м
[St]
+11.9 +11.1 95 +11 +11 по сезону 1019.5 1018.8
18 15.08 СЗ 1 20 км 10/10 300 м
[St]
+11.2 +10.5 95 +11 +11 по сезону 1020.6 1019.9
21 15.08 С 2 4000 м дымка 10/10 300 м
[St]
+11.2 +10.5 95 +10 +10 по сезону 1021.6 1020.9 +11.0
00 16.08 Ю 1 50 км 9/9 300 м
[St]
+14.1 +10.6 79 +14 +15 по сезону 1022.2 1021.5
03 16.08 ЮЗ 3 50 км 6/3 300 м
[Cu med, cong Ci fib]
+15.7 +11.3 75 +15 +21 по сезону 1021.9 1021.3
06 16.08 ЮЗ 3 50 км 4/1 600 м
[Cu med, cong Ci fib]
+16.1 +11.5 74 +16 +19 по сезону 1021.4 1020.8
09 16.08 ЮЗ 4 50 км 3/0
[Ci fib]
+15.5 +12.1 80 +15 +15 по сезону 1020.7 1020.0 +16.4
12 16.08 В 1 50 км 6/1 600 м
[Sc Ci fib]
+12.4 +11.0 91 +12 +12 по сезону 1020.8 1020.1
15 16.08 В 2 50 км 6/3 300 м
[St Ci fib]
+11.5 +10.7 95 +10 +10 по сезону 1020.1 1019.4
18 16.08 С 3 4000 м дымка 9/9 300 м
[St]
+7.9 +7.6 98 +5 +5 холодно 1019.8 1019.1
21 16.08 С 4 50 км 3/0
[Ci fib]
+9.2 +8.8 97 +6 +7 холодно 1019.7 1019.0 +7.4
00 17.08 С 4 50 км 3/0
[Ci fib]
+16.5 +11.1 70 +16 +21 тепло 1019.2 1018.5
03 17.08 ЮВ 8 50 км ясно +16.8 +12.4 75 +15 +17 по сезону 1019.6 1018.9
06 17.08 Ю 6 50 км 3/0
[Ci fib]
+16.2 +12.2 77 +15 +17 по сезону 1018.9 1018.2
09 17.08 Ю 4 50 км 4/0
[Ci fib]
+15.5 +12.8 84 +15 +15 по сезону 1019.5 1018.8 +19.4
12 17.08 ЮВ 4 50 км 10/0
[Ci sp]
+14.5 +13.2 92 +13 +13 по сезону 1020.4 1019.7
15 17.08 В 2 50 км 10/5 300 м
[St Cs]
+13.1 +11.0 87 +12 +12 по сезону 1021.0 1020.3
18 17.08 ЮВ 3 50 км 10/5 300 м
[St Cs]
+12.9 +12.2 96 +11 +11 по сезону 1021.1 1020.4
21 17.08 СВ 1 20 км 10/5 300 м
[St Ac lent Cs]
+12.4 +11.2 92 +12 +13 по сезону 1022.0 1021.3 +10.1
00 18.08 ЮВ 3 50 км 10/6 300 м
[Cu med, cong Ac trans Ci fib]
+16.9 +13.0 78 +17 +18 тепло 1022.4 1021.7
03 18.08 Ю 5 50 км 10/8 600 м
[Cb calv Ac trans Ci fib]
+16.8 +9.8 63 +16 +17 тепло 1022.2 1021.5
06 18.08 Ю 4 50 км 10/8 600 м
[Sc Ac trans Ci sp]
+16.1 +9.7 66 +15 +16 по сезону 1021.9 1021.2
09 18.08 ЮВ 2 50 км 9/8 600 м
[Sc Ac und]
+15.3 +9.1 66 +15 +15 по сезону 1022.2 1021.5 +17.0
12 18.08 СВ 2 50 км 10/6 600 м
[Sc Ac trans Ci fib]
+12.0 +8.4 79 +11 +11 по сезону 1022.6 1021.9
15 18.08 СВ 2 50 км 10/4 600 м
[Sc Ac trans Ci fib]
+9.5 +7.1 85 +8 +8 прохладно 1022.6 1021.9
18 18.08 С 3 50 км 10/4 600 м
[Sc Ac trans Ci fib]
+8.1 +7.1 93 +5 +5 прохладно 1023.3 1022.6
21 18.08 С 3 50 км 9/9 600 м
[Sc]
+9.0 +7.7 92 +6 +7 холодно 1023.6 1022.9 +7.1
00 19.08 З 1 50 км 9/9 600 м
[Sc]
+15.9 +10.0 68 +17 +18 тепло 1024.0 1023.3
03 19.08 ЮВ 5 50 км 9/9 600 м
[Cu Sc]
+16.7 +11.2 70 +16 +16 тепло 1023.7 1023.0
06 19.08 ЮВ 7 50 км 9/9 300 м
[Cb calv]
+15.6 +11.3 76 +14 +14 по сезону 1023.6 1022.9
09 19.08 ЮВ 5 50 км 10/9 300 м
[Cb calv Ci fib]
+15.2 +10.6 74 +14 +14 по сезону 1023.3 1022.6 +16.9
12 19.08 ЮВ 6 50 км 10/10 300 м
[Cb calv]
+14.4 +11.3 82 +12 +12 по сезону 1023.7 1023.0
15 19.08 В 3 10 км слаб. ливневой дождь 10/10 300 м
[Cb cap]
+13.4 +11.2 87 +12 +12 по сезону 1023.4 1022.7
18 19.08 ЮВ 4 20 км {ливн. осадки} 10/10 300 м
[Cb calv]
+13.7 +10.9 83 +12 +12 тепло 1023.5 1022.8
21 19.08 ЮВ 5 20 км 10/10 300 м
[Cb calv]
+13.9 +10.2 78 +12 +12 по сезону 1023.6 1022.9 +13.0 0.0

 

Местоположение метеостанции Охотск (Хабаровский край, Россия): широта 59.36 долгота 143.20 высота над уровнем моря 6 м.

В архиве по умолчанию представлена погода в Охотске за последнюю неделю. Архивные данные за месяц целиком и за предыдущие месяцы, начиная с января 2011 года, Вы можете получить, выбрав интересующий диапазон дат из раскрывающегося списка и нажав кнопку "Ввод!".


*Определитесь, кто Вы:
робот инопланетянин человек

Внимание! Время в таблицах - всемирное. Для получения местного времени необходимо прибавить поправку, которая равна 10 ч.

Смотрите также архив погоды в соседних городах и на ближайших метеорологических станциях:

Погода в Арке (Хабаровский край, Россия) (95 км)
Погода в Улье (Хабаровский край, Россия) (101 км)
Погода в Уеге (Хабаровский край, Россия) (154 км)
Погода в Талоне (Магаданская область, Россия) (307 км)
Погода в Югоренке (Якутия, Россия) (319 км)
Погода на Острове Спафарьева (Магаданская область, Россия) (331 км)
Погода в Колымской (Магаданская область, Россия) (366 км)
Погода в Армани (Магаданская область, Россия) (391 км)
Погода в Усть-Омчуге (Магаданская область, Россия) (404 км)
Погода в Магадане (Магаданская область, Россия) (424 км)

Пояснения к столбцам:

Ветер - указаны скорость ветра в м/с - средняя за 10 мин, порывы в срок и между сроками (в фигурных скобках) и направление, откуда дует ветер: С - северный, СВ - северо-восточный, В - восточный, ЮВ - юго-восточный, Ю - южный, ЮЗ - юго-западный, З - западный, СЗ - северо-западный.
Видимость - горизонтальная дальность видимости в метрах или километрах. При видимости от 1 до 10 км при отсутствии осадков обычно наблюдается дымка, при ухудшении видимости до 1 км и менее - туман. В сухую погоду видимость может ухудшаться дымом, пылью или мглою.
Явления - указаны атмосферные явления, наблюдавшиеся в срок или в последний час перед сроком; фигурными скобками обозначены явления, наблюдавшиеся между сроками (за 1-3 часа до срока); квадратными скобками обозначены град или гололедные отложения с указанием их диаметра в мм.
Облачность - указаны через наклонную черту общая и нижняя облачность в баллах и высота нижней границы облаков в метрах; квадратными скобками обозначены формы облаков: Ci - перистые, Cs - перисто-слоистые, Cc - перисто-кучевые, Ac - высококучевые, As - высокослоистые, Sc - слоисто-кучевые, Ns - слоисто-дождевые, Cu - кучевые, Cb - кучево-дождевые. Подробнее классификацию облаков см. в Атласе облаков (PDF).
T - Температура воздуха - температура, измеренная на высоте 2 м над землей.
Td - Температура точки росы - температура, при понижении до которой содержащийся в воздухе водяной пар достигнет насыщения.
f - Относительная влажность воздуха - влажноcть воздуха, измеренная на высоте 2 м над землей.
Te - Эффективная температура - температура, которую ощущает одетый по сезону человек в тени. Характеристика душности погоды. При расчете учитывается влияние влажности воздуха и скорости ветра на теплоощущения человека.
Tes - Эффективная температура на солнце - температура, которую ощущает человек, с поправкой на солнечный нагрев. Характеристика знойности погоды. Зависит от высоты солнца над горизонтом, облачности и скорости ветра. Ночью, в пасмурную погоду, а также при ветре 12 м/с и более поправка равна нулю.
P - Атмосферное давление - приведенное к уровню моря атмосферное давление.
Po - Атмосферное давление - измеренное на уровне метеостанции атмосферное давление.
Tmin - Минимальная температура - минимум температуры воздуха на высоте 2 м над землей.
Tmax - Максимальная температура - максимум температуры воздуха на высоте 2 м над землей.
R - Количество осадков - Количество выпавших осадков за период времени, мм. При наведении курсора мыши на число - период времени, за который выпало указанное количество осадков.
R24 - Количество осадков - Количество выпавших осадков за 24 часа, мм.
S - Снежный покров - Высота снежного покрова, см. При наведении курсора мыши на число - состояние снежного покрова и степень покрытия местности в баллах.